Location: Lake Arresoe
(56.0000°N, 12.5000°E)
Time: 22:50:24
(UTC+01:00)

ISS - Visible Passes

Search period start: 22 January 2022 00:00
Search period end: 01 February 2022 00:00
Orbit: 413 x 422 km, 51.6° (Epoch: 22 January)

Date Brightness Start Highest point End Pass type
(mag) Time Alt. Az. Time Alt. Az. Time Alt. Az.
22 Jan -2.0 18:16:51 10° SSW 18:19:22 20° SSE 18:19:58 19° SE visible
22 Jan -0.7 19:52:29 10° WSW 19:52:54 13° WSW 19:52:54 13° WSW visible
23 Jan -1.5 17:29:31 10° S 17:31:34 15° SSE 17:33:37 10° ESE visible
23 Jan -2.2 19:04:38 10° SW 19:06:54 29° SSW 19:06:54 29° SSW visible
24 Jan -2.5 18:16:51 10° SW 18:19:48 29° SSE 18:20:52 24° SE visible
24 Jan -0.8 19:53:01 10° WSW 19:53:48 15° WSW 19:53:48 15° WSW visible
25 Jan -2.1 17:29:10 10° SW 17:31:56 24° SSE 17:34:42 10° ESE visible
25 Jan -2.6 19:05:05 10° WSW 19:07:44 36° SSW 19:07:44 36° SSW visible
26 Jan -2.8 18:17:10 10° WSW 18:20:17 37° S 18:21:40 25° SE visible
26 Jan -0.9 19:53:37 10° WSW 19:54:36 17° WSW 19:54:36 17° WSW visible
27 Jan -2.5 17:29:17 10° SW 17:32:21 33° SSE 17:35:24 10° ESE visible
27 Jan -2.6 19:05:37 10° WSW 19:08:31 36° SSW 19:08:31 36° SSW visible
28 Jan -2.7 18:17:36 10° WSW 18:20:45 39° S 18:22:27 22° SE visible
28 Jan -1.0 19:54:18 10° WSW 19:55:23 16° WSW 19:55:23 16° WSW visible
29 Jan -2.7 17:29:37 10° WSW 17:32:46 39° S 17:35:55 10° ESE visible
29 Jan -2.3 19:06:10 10° W 19:09:06 28° SSW 19:09:21 28° S visible
30 Jan -2.4 18:18:06 10° WSW 18:21:09 33° SSW 18:23:22 16° SE visible
30 Jan -0.8 19:55:18 10° WSW 19:56:18 13° SW 19:56:18 13° SW visible
31 Jan -2.5 17:30:03 10° WSW 17:33:09 37° S 17:36:16 10° ESE visible
31 Jan -1.6 19:06:54 10° WSW 19:09:22 19° SSW 19:10:23 17° S visible
